Flag for Russia Weather past 2 weeks in Krasnodar, Russia

Now
61 °F

Clear.


Feels Like: 61 °F
Forecast: 56 / 78 °F
Wind: 8 mph from Northeast

Location: Krasnodar Airport

Current Time: Sep 17, 2014 at 12:35:28 AM

Latest Report: Sep 17, 2014 at 12:00 AM


Visibility: 10 mi

Pressure: 29.95 "Hg

Humidity: 77%

Dew point: 54 °F

Location of KrasnodarLocation

Historic Weather in Krasnodar — Graph

°F

Krasnodar temperature yesterday

Maximum temperature yesterday: 75 °F (at 2:30 PM)
Minimum temperature yesterday: 55 °F (at 7:00 AM)
Average temperature yesterday: 65 °F

Past Weeks' High & Low Weather Summary

 TemperatureHumidityPressure
High93 °F (Sep 3, 5:30 PM)100% (Sep 9, 1:30 AM)30.09 "Hg (Sep 9, 1:30 AM)
Low54 °F (Sep 14, 4:00 AM)25% (Sep 5, 4:00 PM)29.71 "Hg (Sep 6, 5:00 PM)
Average73 °F68%29.87 "Hg
* Reported Sep 1 11:00 PM — Sep 16 11:30 PM, Krasnodar, Weather by CustomWeather, © 2014

Note: Actual official high and low records may vary slightly from our data, if they occured in-between our weather recording intervals... More about our weather records

Advertising

Krasnodar weather history for previous 24 hours

 ConditionsComfort  
Time TempWeatherWind HumidityBarometerVisibility
11:30 PM
Sep 16
61 °FClear.10 mph77%29.95 "Hg10 mi
11:00 PM63 °FClear.10 mph73%29.95 "Hg10 mi
10:30 PM63 °FClear.10 mph73%29.95 "Hg10 mi
10:00 PM63 °FClear.6 mph77%29.95 "Hg10 mi
9:30 PM63 °FClear.6 mph73%29.92 "Hg10 mi
9:00 PM64 °FClear.8 mph68%29.92 "Hg10 mi
8:30 PM66 °FSunny.8 mph64%29.92 "Hg10 mi
8:00 PM66 °FSunny.6 mph64%29.89 "Hg10 mi
7:30 PM68 °FSunny.3 mph56%29.89 "Hg10 mi
7:00 PM70 °FSunny.6 mph50%29.89 "Hg10 mi
6:30 PM73 °FPassing clouds.6 mph44%29.89 "HgN/A
6:00 PM73 °FSunny.8 mph41%29.89 "Hg10 mi
5:30 PM75 °FPassing clouds.6 mph41%29.89 "HgN/A
5:00 PM73 °FPassing clouds.8 mph41%29.89 "HgN/A
4:30 PM73 °FPassing clouds.8 mph41%29.89 "HgN/A
3:30 PM73 °FSunny.13 mph50%29.86 "Hg10 mi
3:00 PM75 °FScattered clouds.10 mph47%29.86 "HgN/A
2:30 PM75 °FScattered clouds.6 mph50%29.89 "HgN/A
2:00 PM73 °FScattered clouds.8 mph53%29.89 "HgN/A
1:30 PM72 °FScattered clouds.10 mph57%29.89 "HgN/A
1:00 PM73 °FPassing clouds.8 mph57%29.89 "HgN/A
12:30 PM70 °FSunny.10 mph60%29.89 "Hg10 mi
12:00 PM70 °FPassing clouds.8 mph60%29.89 "HgN/A
11:30 AM68 °FPassing clouds.6 mph60%29.89 "HgN/A
11:00 AM66 °FPassing clouds.3 mph68%29.89 "HgN/A
10:30 AM64 °FSunny.1 mph68%29.89 "Hg10 mi
10:00 AM63 °FPassing clouds.3 mph73%29.89 "HgN/A
9:30 AM63 °FPassing clouds.6 mph77%29.89 "HgN/A
9:00 AM61 °FSunny.8 mph83%29.89 "Hg10 mi
8:30 AM59 °FSunny.6 mph82%29.89 "Hg10 mi
8:00 AM57 °FClear.3 mph88%29.89 "Hg10 mi
7:30 AM55 °FClear.6 mph94%29.89 "Hg10 mi
7:00 AM55 °FClear.3 mph94%29.89 "Hg10 mi
6:30 AM57 °FPassing clouds.3 mph88%29.89 "HgN/A
6:00 AM59 °FPassing clouds.3 mph88%29.89 "HgN/A
5:30 AM59 °FClear.6 mph88%29.89 "Hg10 mi
5:00 AM59 °FClear.3 mph88%29.89 "Hg10 mi
4:30 AM59 °FClear.3 mph88%29.86 "Hg10 mi
4:00 AM61 °FClear.1 mph83%29.86 "Hg10 mi
3:30 AM61 °FClear.8 mph83%29.86 "Hg10 mi
3:00 AM63 °FClear.8 mph73%29.86 "Hg10 mi
2:30 AM63 °FClear.8 mph77%29.86 "Hg10 mi
2:00 AM61 °FClear.3 mph83%29.86 "Hg10 mi
1:30 AM63 °FClear.6 mph77%29.86 "Hg10 mi
1:00 AM64 °FClear.6 mph73%29.86 "Hg10 mi
12:30 AM66 °FClear.6 mph68%29.86 "Hg10 mi
12:00 AM66 °FClear.6 mph73%29.86 "Hg10 mi
Weather by CustomWeather, © 2014

See weather overviewHow to use our weather pages